Tracking 20239 objects as of 23-Jan-2020
HD Live streaming from Space Station
objects crossing your sky now

CZ-4C R/B

Track CZ-4C R/B now!
10-day predictions
CZ-4C R/B is classified as:


NORAD ID: 39211
Int'l Code: 2013-037D
Perigee: 471.9 km
Apogee: 643.5 km
Inclination: 98.0 °
Period: 95.7 minutes
Semi major axis: 6928 km
RCS: Unknown
Launch date: July 19, 2013
Source: People's Republic of China (PRC)
Launch site: Taiyaun Space Center, China (TSC)

Note: This is a ROCKET BODY
aabbcc
Your satellite tracking list
Your tracking list is empty




NASA's NSSDC Master Catalog

Two Line Element Set (TLE):
1 39211U 13037D   20022.62343376  .00000599  00000-0  40106-4 0  9998
2 39211  97.9530 147.5053 0123821 340.5945  19.0588 15.05305123357116
Source of the keplerian elements: AFSPC